Starlink 32602

operational
NORAD ID: 62181 Int'l Des: 2024-225 Owner: SPXS Country: US Constellation: starlink
LEOCIRCULAR

Über Starlink 32602

Beschreibung wird geladen...

Live-Position

3D-Globus wird geladen...

Nächste Überflüge

Höhenverlauf

Altitude vs Time

uPlot chart will show altitude changes over time

Zweizeiliger Elementsatz

1 62181U 24225U 26034.96936421 .00007033 00000-0 59649-3 0 9997
2 62181 69.9990 239.4879 0002685 260.7842 99.3013 14.98342020 65070
Epoch: 3. Feb. 2026 • Age: 16 hours

Aktueller Status

Höhe 574.3 km
Geschwindigkeit 7.57 km/s
Subsatellitenpunkt 7.03°N, 124.24°W
Startdatum 30. Nov. 2024
Alter 1.1 years
Typ internet

Technische Details

Klassifizierung Payload
Masse 730.00 kg
Trockenmasse 700.00 kg
Gesamtmasse 730.00 kg
Länge 0.30 m
Durchmesser 4.10 m
Spannweite 29.00 m
Form Box + pan
Hersteller SPXS
Bus-Typ Starlink V2M
Phasenstatus In Orbit
Besitzer/Staat SPXS/US

Große Konstellationen

Loading constellations...